Flag for Germany Weather past 2 weeks in Leutkirch im Allgäu, Baden-Württemberg, Germany

Now
67 °F

Overcast.


Feels Like: 67 °F
Forecast: 54 / 68 °F
Wind: 3 mph from Southwest

Location: Kempten

Current Time: Jul 8, 2015 at 7:20:10 AM

Latest Report: Jul 8, 2015 at 7:00 AM


Visibility: 19 mi

Pressure: 29.89 "Hg (27.68 "Hg at 656m altitude)

Humidity: 73%

Dew point: 58 °F

Location of Leutkirch im AllgäuLocation

Historic Weather in Leutkirch im Allgäu — Graph

°F

Leutkirch im Allgäu temperature yesterday

Maximum temperature yesterday: 91 °F (at 5:00 PM)
Minimum temperature yesterday: 62 °F (at 6:00 AM)
Average temperature yesterday: 78 °F

Past Weeks' High & Low Weather Summary

 TemperatureHumidityPressure
High93 °F (Jul 5, 4:00 PM)98% (Jun 28, 12:00 AM)30.27 "Hg (Jun 28, 12:00 AM)
Low45 °F (Jun 25, 4:00 AM)23% (Jul 5, 4:00 PM)29.69 "Hg (Jul 7, 8:00 PM)
Average68 °F64%30.08 "Hg
* Reported Jun 23 4:00 AM — Jul 8 4:00 AM, Leutkirch im Allgäu, Weather by CustomWeather, © 2015

Note: Actual official high and low records may vary slightly from our data, if they occured in-between our weather recording intervals... More about our weather records

Advertising

Leutkirch im Allgäu weather history for previous 24 hours

 ConditionsComfort  
Time TempWeatherWind HumidityBarometerVisibility
4:00 AM
Wed, Jul 8
68 °FLight rain. Overcast.3 mph88%29.86 "Hg4 mi
3:00 AM68 °FLight rain. Overcast.2 mph87%29.87 "Hg7 mi
2:00 AM74 °FOvercast.5 mph65%29.82 "Hg14 mi
1:00 AM71 °FPassing clouds.2 mph63%29.79 "Hg22 mi
10:00 PM
Tue, Jul 7
87 °FOvercast.8 mph31%29.70 "Hg22 mi
9:00 PM79 °FPartly sunny.1 mph66%29.72 "Hg14 mi
8:00 PM86 °FSunny.2 mph39%29.69 "Hg15 mi
7:00 PM90 °FSunny.2 mph32%29.71 "Hg22 mi
6:00 PM91 °FSunny.2 mph31%29.73 "Hg16 mi
5:00 PM91 °FSunny.3 mph33%29.76 "Hg6 mi
4:00 PM89 °FPassing clouds.5 mph38%29.79 "Hg5 mi
3:00 PM89 °FSunny.5 mph39%29.80 "Hg10 mi
2:00 PM88 °FSunny.5 mph42%29.82 "Hg9 mi
1:00 PM88 °FSunny.3 mph40%29.83 "Hg11 mi
12:00 PM86 °FSunny.3 mph42%29.85 "Hg16 mi
10:00 AM79 °FScattered clouds.1 mph54%29.91 "Hg16 mi
9:00 AM74 °FSunny.1 mph63%29.94 "Hg14 mi
8:00 AM69 °FSunny.2 mph72%29.97 "Hg11 mi
7:00 AM65 °FSunny.2 mph84%30.00 "Hg11 mi
Weather by CustomWeather, © 2015

See weather overviewHow to use our weather pages